Time,TemperatureF,DewpointF,PressureIn,WindDirection,WindDirectionDegrees,WindSpeedMPH,WindSpeedGustMPH,Humidity,HourlyPrecipIn,Conditions,Clouds,dailyrainin,SoftwareType,DateUTC
2013-03-04 00:03:00,25.7,14.4,30.13,NNW,338,0.0,4.2,62,0.00,,,0.00,WUHU216HW,2013-03-04 05:03:00,
2013-03-04 00:08:00,25.5,14.6,30.13,NNW,338,0.0,0.0,63,0.00,,,0.00,WUHU216HW,2013-03-04 05:08:00,
2013-03-04 00:13:00,25.5,14.2,30.13,NNW,338,0.0,0.0,62,0.00,,,0.00,WUHU216HW,2013-03-04 05:13:00,
2013-03-04 00:18:00,25.5,14.6,30.13,NNW,338,0.0,0.0,63,0.00,,,0.00,WUHU216HW,2013-03-04 05:18:00,
2013-03-04 00:23:00,25.5,14.6,30.13,NNW,338,0.0,0.0,63,0.00,,,0.00,WUHU216HW,2013-03-04 05:23:00,
2013-03-04 00:28:00,25.3,14.4,30.13,NW,315,0.0,0.0,63,0.00,,,0.00,WUHU216HW,2013-03-04 05:28:00,
2013-03-04 00:33:00,25.3,14.4,30.13,WNW,293,0.0,0.0,63,0.00,,,0.00,WUHU216HW,2013-03-04 05:33:00,
2013-03-04 00:38:00,25.1,14.2,30.13,NNW,338,0.0,0.0,63,0.00,,,0.00,WUHU216HW,2013-03-04 05:38:00,
2013-03-04 00:43:00,25.1,14.2,30.14,NNW,338,0.0,0.0,63,0.00,,,0.00,WUHU216HW,2013-03-04 05:43:00,
2013-03-04 00:48:00,25.1,14.2,30.13,NNW,338,0.0,0.0,63,0.00,,,0.00,WUHU216HW,2013-03-04 05:48:00,
2013-03-04 00:53:00,25.1,14.2,30.13,NNW,338,0.0,0.0,63,0.00,,,0.00,WUHU216HW,2013-03-04 05:53:00,
2013-03-04 00:58:00,24.9,14.1,30.13,NW,315,0.0,0.0,63,0.00,,,0.00,WUHU216HW,2013-03-04 05:58:00,
2013-03-04 01:03:00,24.9,14.1,30.13,NW,315,0.0,0.0,63,0.00,,,0.00,WUHU216HW,2013-03-04 06:03:00,
2013-03-04 01:08:00,24.9,14.1,30.14,NW,315,3.8,3.8,63,0.00,,,0.00,WUHU216HW,2013-03-04 06:08:00,
2013-03-04 01:13:00,24.9,14.1,30.14,NW,315,0.0,3.8,63,0.00,,,0.00,WUHU216HW,2013-03-04 06:13:00,
2013-03-04 01:18:00,24.8,13.9,30.14,NNW,338,0.0,3.8,63,0.00,,,0.00,WUHU216HW,2013-03-04 06:18:00,
2013-03-04 01:23:00,24.6,13.7,30.14,North,0,0.0,0.0,63,0.00,,,0.00,WUHU216HW,2013-03-04 06:23:00,
2013-03-04 01:28:00,24.6,13.7,30.14,NNW,338,0.0,0.0,63,0.00,,,0.00,WUHU216HW,2013-03-04 06:28:00,
2013-03-04 01:33:00,24.6,14.1,30.14,NNW,338,0.0,0.0,64,0.00,,,0.00,WUHU216HW,2013-03-04 06:33:00,
2013-03-04 01:38:00,24.6,14.1,30.14,WNW,293,0.0,0.0,64,0.00,,,0.00,WUHU216HW,2013-03-04 06:38:00,
2013-03-04 01:43:00,24.6,14.1,30.15,NW,315,0.0,0.0,64,0.00,,,0.00,WUHU216HW,2013-03-04 06:43:00,
2013-03-04 01:48:00,24.6,14.1,30.15,NNW,338,0.0,0.0,64,0.00,,,0.00,WUHU216HW,2013-03-04 06:48:00,
2013-03-04 01:53:00,24.6,14.1,30.15,NW,315,0.0,0.0,64,0.00,,,0.00,WUHU216HW,2013-03-04 06:53:00,
2013-03-04 01:58:00,24.6,14.4,30.15,NW,315,0.0,0.0,65,0.00,,,0.00,WUHU216HW,2013-03-04 06:58:00,
2013-03-04 02:03:00,24.6,14.4,30.14,NW,315,0.0,0.0,65,0.00,,,0.00,WUHU216HW,2013-03-04 07:03:00,
2013-03-04 02:08:00,24.6,14.4,30.14,NNW,338,0.0,0.0,65,0.00,,,0.00,WUHU216HW,2013-03-04 07:08:00,
2013-03-04 02:13:00,24.6,14.4,30.15,NNW,338,0.0,0.0,65,0.00,,,0.00,WUHU216HW,2013-03-04 07:13:00,
2013-03-04 02:18:00,24.6,14.4,30.14,North,0,0.0,0.0,65,0.00,,,0.00,WUHU216HW,2013-03-04 07:18:00,
2013-03-04 02:23:00,24.6,14.4,30.15,North,0,0.0,0.0,65,0.00,,,0.00,WUHU216HW,2013-03-04 07:23:00,
2013-03-04 02:28:00,24.6,14.4,30.15,North,0,0.0,0.0,65,0.00,,,0.00,WUHU216HW,2013-03-04 07:28:00,
2013-03-04 02:33:00,24.6,14.4,30.14,North,0,0.0,0.0,65,0.00,,,0.00,WUHU216HW,2013-03-04 07:33:00,
2013-03-04 02:38:00,24.8,14.6,30.14,NW,315,0.0,0.0,65,0.00,,,0.00,WUHU216HW,2013-03-04 07:38:00,
2013-03-04 02:43:00,24.8,14.7,30.14,NNW,338,0.0,0.0,65,0.00,,,0.00,WUHU216HW,2013-03-04 07:43:00,
2013-03-04 02:48:00,24.9,14.7,30.13,NW,315,0.0,0.0,65,0.00,,,0.00,WUHU216HW,2013-03-04 07:48:00,
2013-03-04 02:53:00,24.9,14.7,30.14,NW,315,0.0,0.0,65,0.00,,,0.00,WUHU216HW,2013-03-04 07:53:00,
2013-03-04 02:58:00,24.9,14.7,30.14,NW,315,0.0,0.0,65,0.00,,,0.00,WUHU216HW,2013-03-04 07:58:00,
2013-03-04 03:03:00,24.9,14.7,30.14,NW,315,0.0,0.0,65,0.00,,,0.00,WUHU216HW,2013-03-04 08:03:00,
2013-03-04 03:08:00,24.9,14.7,30.14,NW,315,0.0,0.0,65,0.00,,,0.00,WUHU216HW,2013-03-04 08:08:00,
2013-03-04 03:13:00,24.9,14.7,30.14,NNW,338,0.0,0.0,65,0.00,,,0.00,WUHU216HW,2013-03-04 08:13:00,
2013-03-04 03:18:00,24.9,14.7,30.14,NNW,338,0.0,0.0,65,0.00,,,0.00,WUHU216HW,2013-03-04 08:18:00,
2013-03-04 03:23:00,24.9,14.7,30.14,NW,315,0.0,0.0,65,0.00,,,0.00,WUHU216HW,2013-03-04 08:23:00,
2013-03-04 03:28:00,24.9,14.7,30.15,WNW,293,0.0,0.0,65,0.00,,,0.00,WUHU216HW,2013-03-04 08:28:00,
2013-03-04 03:33:00,24.9,14.7,30.15,NW,315,0.0,0.0,65,0.00,,,0.00,WUHU216HW,2013-03-04 08:33:00,
2013-03-04 03:38:00,24.9,14.7,30.15,NW,315,0.0,0.0,65,0.00,,,0.00,WUHU216HW,2013-03-04 08:38:00,
2013-03-04 03:43:00,24.9,15.1,30.16,NNW,338,0.0,0.0,66,0.00,,,0.00,WUHU216HW,2013-03-04 08:43:00,
2013-03-04 03:48:00,24.9,15.1,30.16,NNW,338,0.0,0.0,66,0.00,,,0.00,WUHU216HW,2013-03-04 08:48:00,
2013-03-04 03:53:00,24.9,15.1,30.16,NNW,338,0.0,0.0,66,0.00,,,0.00,WUHU216HW,2013-03-04 08:53:00,
2013-03-04 03:58:00,24.9,15.1,30.16,NNW,338,0.0,0.0,66,0.00,,,0.00,WUHU216HW,2013-03-04 08:58:00,
2013-03-04 04:03:00,24.9,15.1,30.16,NNW,338,0.0,0.0,66,0.00,,,0.00,WUHU216HW,2013-03-04 09:03:00,
2013-03-04 04:08:00,25.1,15.3,30.16,NNW,338,0.0,0.0,66,0.00,,,0.00,WUHU216HW,2013-03-04 09:08:00,
2013-03-04 04:13:00,25.1,15.3,30.16,NNW,338,0.0,0.0,66,0.00,,,0.00,WUHU216HW,2013-03-04 09:13:00,
2013-03-04 04:18:00,25.1,15.6,30.16,NNW,338,0.0,0.0,67,0.00,,,0.00,WUHU216HW,2013-03-04 09:18:00,
2013-03-04 04:23:00,25.1,15.6,30.16,West,270,5.1,5.1,67,0.00,,,0.00,WUHU216HW,2013-03-04 09:23:00,
2013-03-04 04:29:00,24.9,15.6,30.16,NW,315,0.0,5.1,67,0.00,,,0.00,WUHU216HW,2013-03-04 09:29:00,
2013-03-04 04:34:00,24.9,15.4,30.16,NNW,338,0.0,0.0,67,0.00,,,0.00,WUHU216HW,2013-03-04 09:34:00,
2013-03-04 04:39:00,24.9,15.4,30.16,NW,315,0.0,0.0,67,0.00,,,0.00,WUHU216HW,2013-03-04 09:39:00,
2013-03-04 04:44:00,24.9,15.4,30.17,NW,315,0.0,0.0,67,0.00,,,0.00,WUHU216HW,2013-03-04 09:44:00,
2013-03-04 04:49:00,24.9,15.4,30.17,NW,315,0.0,0.0,67,0.00,,,0.00,WUHU216HW,2013-03-04 09:49:00,
2013-03-04 04:54:00,24.6,15.4,30.17,North,0,0.0,0.0,68,0.00,,,0.00,WUHU216HW,2013-03-04 09:54:00,
2013-03-04 04:59:00,24.6,15.4,30.17,NNW,338,0.0,0.0,68,0.00,,,0.00,WUHU216HW,2013-03-04 09:59:00,
2013-03-04 05:04:00,24.6,15.4,30.17,NW,315,0.0,0.0,68,0.00,,,0.00,WUHU216HW,2013-03-04 10:04:00,
2013-03-04 05:09:00,24.6,15.4,30.18,NNW,338,0.0,0.0,68,0.00,,,0.00,WUHU216HW,2013-03-04 10:09:00,
2013-03-04 05:14:00,24.6,15.4,30.18,NNW,338,0.0,0.0,68,0.00,,,0.00,WUHU216HW,2013-03-04 10:14:00,
2013-03-04 05:19:00,24.6,15.4,30.18,NNW,338,0.0,0.0,68,0.00,,,0.00,WUHU216HW,2013-03-04 10:19:00,
2013-03-04 05:24:00,24.6,15.4,30.18,West,270,0.0,0.0,68,0.00,,,0.00,WUHU216HW,2013-03-04 10:24:00,
2013-03-04 05:29:00,24.6,15.4,30.19,WNW,293,2.6,2.6,68,0.00,,,0.00,WUHU216HW,2013-03-04 10:29:00,
2013-03-04 05:34:00,24.6,15.4,30.19,North,0,0.0,2.6,68,0.00,,,0.00,WUHU216HW,2013-03-04 10:34:00,
2013-03-04 05:39:00,24.6,15.4,30.19,NNW,338,0.0,2.6,68,0.00,,,0.00,WUHU216HW,2013-03-04 10:39:00,
2013-03-04 05:44:00,24.4,15.3,30.19,North,0,0.0,0.0,68,0.00,,,0.00,WUHU216HW,2013-03-04 10:44:00,
2013-03-04 05:49:00,24.4,15.3,30.19,NNW,338,0.0,0.0,68,0.00,,,0.00,WUHU216HW,2013-03-04 10:49:00,
2013-03-04 05:54:00,24.4,15.3,30.19,WNW,293,0.0,0.0,68,0.00,,,0.00,WUHU216HW,2013-03-04 10:54:00,
2013-03-04 05:59:00,24.4,15.3,30.19,NW,315,0.0,0.0,68,0.00,,,0.00,WUHU216HW,2013-03-04 10:59:00,
2013-03-04 06:04:00,24.4,15.3,30.19,NW,315,2.2,2.2,68,0.00,,,0.00,WUHU216HW,2013-03-04 11:04:00,
2013-03-04 06:09:00,24.4,15.3,30.19,WNW,293,0.0,2.2,68,0.00,,,0.00,WUHU216HW,2013-03-04 11:09:00,
2013-03-04 06:14:00,24.4,15.3,30.19,NNW,338,0.0,2.2,68,0.00,,,0.00,WUHU216HW,2013-03-04 11:14:00,
2013-03-04 06:19:00,24.4,15.3,30.20,West,270,0.0,0.0,68,0.00,,,0.00,WUHU216HW,2013-03-04 11:19:00,
2013-03-04 06:24:00,24.4,15.3,30.20,NNW,338,0.0,0.0,68,0.00,,,0.00,WUHU216HW,2013-03-04 11:24:00,
2013-03-04 06:29:00,24.4,15.3,30.21,NNW,338,0.0,0.0,68,0.00,,,0.00,WUHU216HW,2013-03-04 11:29:00,
2013-03-04 06:34:00,24.4,15.3,30.21,NNW,338,0.0,0.0,68,0.00,,,0.00,WUHU216HW,2013-03-04 11:34:00,
2013-03-04 06:39:00,24.0,14.9,30.21,NNW,338,0.0,0.0,68,0.00,,,0.00,WUHU216HW,2013-03-04 11:39:00,
2013-03-04 06:44:00,24.0,14.9,30.22,NW,315,0.0,0.0,68,0.00,,,0.00,WUHU216HW,2013-03-04 11:44:00,
2013-03-04 06:49:00,24.0,14.9,30.22,NW,315,0.0,0.0,68,0.00,,,0.00,WUHU216HW,2013-03-04 11:49:00,
2013-03-04 06:54:00,24.0,14.9,30.21,NW,315,0.0,0.0,68,0.00,,,0.00,WUHU216HW,2013-03-04 11:54:00,
2013-03-04 06:59:00,24.0,14.9,30.22,NW,315,0.0,0.0,68,0.00,,,0.00,WUHU216HW,2013-03-04 11:59:00,
2013-03-04 07:04:00,24.0,14.9,30.22,NW,315,0.0,0.0,68,0.00,,,0.00,WUHU216HW,2013-03-04 12:04:00,
2013-03-04 07:09:00,23.9,15.1,30.22,WNW,293,0.0,0.0,69,0.00,,,0.00,WUHU216HW,2013-03-04 12:09:00,
2013-03-04 07:14:00,23.9,15.1,30.22,NW,315,0.0,0.0,69,0.00,,,0.00,WUHU216HW,2013-03-04 12:14:00,
2013-03-04 07:19:00,23.9,15.1,30.22,NW,315,0.0,0.0,69,0.00,,,0.00,WUHU216HW,2013-03-04 12:19:00,
2013-03-04 07:24:00,23.9,15.1,30.23,NNW,338,0.0,0.0,69,0.00,,,0.00,WUHU216HW,2013-03-04 12:24:00,
2013-03-04 07:29:00,23.9,15.1,30.23,NNW,338,0.0,0.0,69,0.00,,,0.00,WUHU216HW,2013-03-04 12:29:00,
2013-03-04 07:34:00,23.9,15.1,30.23,NNW,338,0.0,0.0,69,0.00,,,0.00,WUHU216HW,2013-03-04 12:34:00,
2013-03-04 07:39:00,24.0,15.3,30.23,NW,315,0.0,0.0,69,0.00,,,0.00,WUHU216HW,2013-03-04 12:39:00,
2013-03-04 07:44:00,24.0,15.3,30.22,NW,315,0.0,0.0,69,0.00,,,0.00,WUHU216HW,2013-03-04 12:44:00,
2013-03-04 07:49:00,23.9,15.1,30.22,NW,315,0.0,0.0,69,0.00,,,0.00,WUHU216HW,2013-03-04 12:49:00,
2013-03-04 07:54:00,23.9,15.5,30.23,NW,315,0.0,0.0,70,0.00,,,0.00,WUHU216HW,2013-03-04 12:54:00,
2013-03-04 07:59:00,24.0,15.6,30.23,NW,315,0.0,0.0,70,0.00,,,0.00,WUHU216HW,2013-03-04 12:59:00,
2013-03-04 08:04:00,24.0,15.6,30.23,NW,315,0.0,0.0,70,0.00,,,0.00,WUHU216HW,2013-03-04 13:04:00,
2013-03-04 08:09:00,24.4,16.0,30.23,NW,315,0.0,0.0,70,0.00,,,0.00,WUHU216HW,2013-03-04 13:09:00,
2013-03-04 08:14:00,24.6,16.1,30.23,NW,315,0.0,0.0,70,0.00,,,0.00,WUHU216HW,2013-03-04 13:14:00,
2013-03-04 08:19:00,24.6,16.1,30.23,WNW,293,0.0,0.0,70,0.00,,,0.00,WUHU216HW,2013-03-04 13:19:00,
2013-03-04 08:24:00,24.9,16.5,30.23,WNW,293,0.0,0.0,70,0.00,,,0.00,WUHU216HW,2013-03-04 13:24:00,
2013-03-04 08:29:00,25.3,16.8,30.23,NW,315,0.0,0.0,70,0.00,,,0.00,WUHU216HW,2013-03-04 13:29:00,
2013-03-04 08:34:00,25.5,16.7,30.23,NW,315,0.0,0.0,69,0.00,,,0.00,WUHU216HW,2013-03-04 13:34:00,
2013-03-04 08:39:00,25.7,16.8,30.23,NW,315,0.0,0.0,69,0.00,,,0.00,WUHU216HW,2013-03-04 13:39:00,
2013-03-04 08:44:00,26.2,17.2,30.23,NW,315,0.0,0.0,69,0.00,,,0.00,WUHU216HW,2013-03-04 13:44:00,
2013-03-04 08:49:00,26.4,17.6,30.23,NNW,338,0.0,0.0,69,0.00,,,0.00,WUHU216HW,2013-03-04 13:49:00,
2013-03-04 08:54:00,26.6,17.7,30.23,NE,45,0.0,0.0,69,0.00,,,0.00,WUHU216HW,2013-03-04 13:54:00,
2013-03-04 08:59:00,27.3,18.5,30.24,NNW,338,0.0,0.0,69,0.00,,,0.00,WUHU216HW,2013-03-04 13:59:00,
2013-03-04 09:04:00,28.0,19.2,30.24,NNE,23,0.0,0.0,69,0.00,,,0.00,WUHU216HW,2013-03-04 14:04:00,
2013-03-04 09:09:00,28.5,19.3,30.24,WNW,293,0.0,0.0,68,0.00,,,0.00,WUHU216HW,2013-03-04 14:09:00,
2013-03-04 09:14:00,29.1,19.5,30.24,WNW,293,0.0,0.0,67,0.00,,,0.00,WUHU216HW,2013-03-04 14:14:00,
2013-03-04 09:19:00,29.8,19.7,30.23,NW,315,0.0,0.0,66,0.00,,,0.00,WUHU216HW,2013-03-04 14:19:00,
2013-03-04 09:24:00,30.0,19.9,30.24,NW,315,0.0,0.0,66,0.00,,,0.00,WUHU216HW,2013-03-04 14:24:00,
2013-03-04 09:29:00,30.7,19.9,30.23,NNW,338,0.0,0.0,64,0.00,,,0.00,WUHU216HW,2013-03-04 14:29:00,
2013-03-04 09:34:00,31.1,19.9,30.23,NW,315,0.0,0.0,63,0.00,,,0.00,WUHU216HW,2013-03-04 14:34:00,
2013-03-04 09:39:00,31.6,20.1,30.24,NNW,338,0.4,0.4,62,0.00,,,0.00,WUHU216HW,2013-03-04 14:39:00,
2013-03-04 09:44:00,31.8,19.9,30.23,NNW,338,0.0,0.4,61,0.00,,,0.00,WUHU216HW,2013-03-04 14:44:00,
2013-03-04 09:49:00,32.1,19.9,30.24,NW,315,0.0,0.0,60,0.00,,,0.00,WUHU216HW,2013-03-04 14:49:00,
2013-03-04 09:54:00,32.5,19.8,30.23,North,0,0.0,0.0,59,0.00,,,0.00,WUHU216HW,2013-03-04 14:54:00,
2013-03-04 09:59:00,33.2,20.0,30.24,West,270,1.1,1.1,58,0.00,,,0.00,WUHU216HW,2013-03-04 14:59:00,
2013-03-04 10:04:00,33.6,19.9,30.23,NNW,338,0.0,3.8,57,0.00,,,0.00,WUHU216HW,2013-03-04 15:04:00,
2013-03-04 10:09:00,33.9,20.2,30.24,NNW,338,0.0,3.8,57,0.00,,,0.00,WUHU216HW,2013-03-04 15:09:00,
2013-03-04 10:14:00,34.3,19.7,30.23,NNW,338,4.0,4.0,55,0.00,,,0.00,WUHU216HW,2013-03-04 15:14:00,
2013-03-04 10:19:00,34.7,19.6,30.23,West,270,0.0,4.0,54,0.00,,,0.00,WUHU216HW,2013-03-04 15:19:00,
2013-03-04 10:24:00,35.2,20.2,30.23,WNW,293,0.0,4.0,54,0.00,,,0.00,WUHU216HW,2013-03-04 15:24:00,
2013-03-04 10:29:00,35.7,20.3,30.23,WNW,293,0.0,0.0,53,0.00,,,0.00,WUHU216HW,2013-03-04 15:29:00,
2013-03-04 10:34:00,36.3,20.8,30.23,WNW,293,0.0,0.0,53,0.00,,,0.00,WUHU216HW,2013-03-04 15:34:00,
2013-03-04 10:39:00,36.8,20.8,30.23,NW,315,0.0,0.0,52,0.00,,,0.00,WUHU216HW,2013-03-04 15:39:00,
2013-03-04 10:44:00,37.2,21.1,30.23,West,270,0.0,0.0,52,0.00,,,0.00,WUHU216HW,2013-03-04 15:44:00,
2013-03-04 10:49:00,37.7,21.6,30.23,West,270,0.0,0.0,52,0.00,,,0.00,WUHU216HW,2013-03-04 15:49:00,
2013-03-04 10:54:00,37.9,21.3,30.23,West,270,0.0,0.0,51,0.00,,,0.00,WUHU216HW,2013-03-04 15:54:00,
2013-03-04 10:59:00,38.4,21.4,30.23,NW,315,0.0,0.0,50,0.00,,,0.00,WUHU216HW,2013-03-04 15:59:00,
2013-03-04 11:04:00,38.8,21.7,30.23,WNW,293,0.0,0.0,50,0.00,,,0.00,WUHU216HW,2013-03-04 16:04:00,
2013-03-04 11:09:00,39.0,21.4,30.23,NNW,338,0.0,0.0,49,0.00,,,0.00,WUHU216HW,2013-03-04 16:09:00,
2013-03-04 11:14:00,39.3,21.2,30.22,NW,315,0.0,0.0,48,0.00,,,0.00,WUHU216HW,2013-03-04 16:14:00,
2013-03-04 11:19:00,39.3,20.6,30.23,NW,315,0.0,0.0,47,0.00,,,0.00,WUHU216HW,2013-03-04 16:19:00,
2013-03-04 11:24:00,39.7,21.0,30.23,NNW,338,0.0,0.0,47,0.00,,,0.00,WUHU216HW,2013-03-04 16:24:00,
2013-03-04 11:29:00,39.9,21.1,30.22,WNW,293,0.0,0.0,47,0.00,,,0.00,WUHU216HW,2013-03-04 16:29:00,
2013-03-04 11:34:00,40.2,21.5,30.22,WNW,293,3.3,3.3,47,0.00,,,0.00,WUHU216HW,2013-03-04 16:34:00,
2013-03-04 11:39:00,40.6,20.7,30.22,NNW,338,0.0,3.3,45,0.00,,,0.00,WUHU216HW,2013-03-04 16:39:00,
2013-03-04 11:44:00,40.8,21.4,30.21,West,270,0.0,0.0,46,0.00,,,0.00,WUHU216HW,2013-03-04 16:44:00,
2013-03-04 11:49:00,41.1,21.7,30.21,NW,315,4.2,4.2,46,0.00,,,0.00,WUHU216HW,2013-03-04 16:49:00,
2013-03-04 11:54:00,41.5,21.0,30.21,NNW,338,0.0,4.6,44,0.00,,,0.00,WUHU216HW,2013-03-04 16:54:00,
2013-03-04 11:59:00,41.7,21.2,30.21,WNW,293,0.0,4.6,44,0.00,,,0.00,WUHU216HW,2013-03-04 16:59:00,
2013-03-04 12:04:00,42.0,21.5,30.21,North,0,0.0,0.0,44,0.00,,,0.00,WUHU216HW,2013-03-04 17:04:00,
2013-03-04 12:09:00,42.4,21.9,30.21,NW,315,1.1,1.1,44,0.00,,,0.00,WUHU216HW,2013-03-04 17:09:00,
2013-03-04 12:14:00,42.6,22.1,30.21,North,0,0.0,1.1,44,0.00,,,0.00,WUHU216HW,2013-03-04 17:14:00,
2013-03-04 12:19:00,43.1,22.0,30.21,NW,315,0.0,1.1,43,0.00,,,0.00,WUHU216HW,2013-03-04 17:19:00,
2013-03-04 12:24:00,43.7,22.5,30.21,NW,315,0.0,0.0,43,0.00,,,0.00,WUHU216HW,2013-03-04 17:24:00,
2013-03-04 12:29:00,44.0,22.8,30.21,NW,315,0.0,0.0,43,0.00,,,0.00,WUHU216HW,2013-03-04 17:29:00,
2013-03-04 12:34:00,44.4,23.1,30.21,NNW,338,0.0,4.9,42,0.00,,,0.00,WUHU216HW,2013-03-04 17:34:00,
2013-03-04 12:39:00,44.9,23.1,30.21,NNW,338,0.0,4.9,42,0.00,,,0.00,WUHU216HW,2013-03-04 17:39:00,
2013-03-04 12:44:00,45.3,23.4,30.20,North,0,0.0,0.0,42,0.00,,,0.00,WUHU216HW,2013-03-04 17:44:00,
2013-03-04 12:49:00,45.5,23.0,30.20,WNW,293,1.7,1.7,41,0.00,,,0.00,WUHU216HW,2013-03-04 17:49:00,
2013-03-04 12:54:00,45.6,22.7,30.20,WNW,293,0.0,1.7,40,0.00,,,0.00,WUHU216HW,2013-03-04 17:54:00,
2013-03-04 13:00:00,45.8,22.2,30.20,NW,315,2.4,2.4,39,0.00,,,0.00,WUHU216HW,2013-03-04 18:00:00,
2013-03-04 13:05:00,46.0,21.7,30.20,WNW,293,0.0,2.4,38,0.00,,,0.00,WUHU216HW,2013-03-04 18:05:00,
2013-03-04 13:10:00,46.2,22.5,30.20,WNW,293,0.0,0.0,39,0.00,,,0.00,WUHU216HW,2013-03-04 18:10:00,
2013-03-04 13:15:00,46.5,23.5,30.19,NW,315,0.0,0.0,40,0.00,,,0.00,WUHU216HW,2013-03-04 18:15:00,
2013-03-04 13:20:00,47.3,23.3,30.19,North,0,0.0,0.0,39,0.00,,,0.00,WUHU216HW,2013-03-04 18:20:00,
2013-03-04 13:25:00,48.0,24.1,30.19,North,0,0.0,0.0,39,0.00,,,0.00,WUHU216HW,2013-03-04 18:25:00,
2013-03-04 13:30:00,48.0,23.4,30.18,NW,315,0.0,0.0,38,0.00,,,0.00,WUHU216HW,2013-03-04 18:30:00,
2013-03-04 13:35:00,48.2,23.7,30.18,NNW,338,0.0,5.1,38,0.00,,,0.00,WUHU216HW,2013-03-04 18:35:00,
2013-03-04 13:40:00,48.7,24.1,30.18,NW,315,0.0,5.1,38,0.00,,,0.00,WUHU216HW,2013-03-04 18:40:00,
2013-03-04 13:45:00,49.1,24.4,30.17,NE,45,0.0,0.0,38,0.00,,,0.00,WUHU216HW,2013-03-04 18:45:00,
2013-03-04 13:50:00,48.7,22.7,30.16,WSW,248,0.0,0.0,36,0.00,,,0.00,WUHU216HW,2013-03-04 18:50:00,
2013-03-04 13:55:00,48.3,22.4,30.16,WSW,248,0.0,0.0,36,0.00,,,0.00,WUHU216HW,2013-03-04 18:55:00,
2013-03-04 14:00:00,48.3,22.4,30.16,WNW,293,0.0,0.0,36,0.00,,,0.00,WUHU216HW,2013-03-04 19:00:00,
2013-03-04 14:05:00,48.3,23.1,30.16,WNW,293,0.0,0.0,37,0.00,,,0.00,WUHU216HW,2013-03-04 19:05:00,
2013-03-04 14:10:00,48.5,23.2,30.16,North,0,0.0,0.0,37,0.00,,,0.00,WUHU216HW,2013-03-04 19:10:00,
2013-03-04 14:15:00,48.7,24.1,30.15,North,0,0.0,0.0,38,0.00,,,0.00,WUHU216HW,2013-03-04 19:15:00,
2013-03-04 14:20:00,48.7,23.4,30.15,NNW,338,0.0,0.0,37,0.00,,,0.00,WUHU216HW,2013-03-04 19:20:00,
2013-03-04 14:25:00,48.7,23.4,30.15,North,0,0.0,0.0,37,0.00,,,0.00,WUHU216HW,2013-03-04 19:25:00,
2013-03-04 14:30:00,48.7,22.7,30.15,West,270,0.0,0.0,36,0.00,,,0.00,WUHU216HW,2013-03-04 19:30:00,
2013-03-04 14:35:00,48.7,22.7,30.15,North,0,0.0,0.0,36,0.00,,,0.00,WUHU216HW,2013-03-04 19:35:00,
2013-03-04 14:40:00,48.5,21.9,30.14,West,270,0.0,0.0,35,0.00,,,0.00,WUHU216HW,2013-03-04 19:40:00,
2013-03-04 14:45:00,48.2,20.9,30.14,NW,315,0.0,0.0,34,0.00,,,0.00,WUHU216HW,2013-03-04 19:45:00,
2013-03-04 14:50:00,48.3,22.4,30.14,North,0,0.0,0.0,36,0.00,,,0.00,WUHU216HW,2013-03-04 19:50:00,
2013-03-04 14:55:00,48.5,22.6,30.14,NNE,23,0.0,0.0,36,0.00,,,0.00,WUHU216HW,2013-03-04 19:55:00,
2013-03-04 15:00:00,48.5,22.6,30.15,North,0,0.0,0.0,36,0.00,,,0.00,WUHU216HW,2013-03-04 20:00:00,
2013-03-04 15:05:00,48.5,21.9,30.15,NW,315,0.0,0.0,35,0.00,,,0.00,WUHU216HW,2013-03-04 20:05:00,
2013-03-04 15:10:00,48.7,22.1,30.15,WNW,293,0.0,0.0,35,0.00,,,0.00,WUHU216HW,2013-03-04 20:10:00,
2013-03-04 15:15:00,48.7,22.1,30.14,North,0,0.0,0.0,35,0.00,,,0.00,WUHU216HW,2013-03-04 20:15:00,
2013-03-04 15:20:00,48.9,21.5,30.14,NNW,338,0.0,0.0,34,0.00,,,0.00,WUHU216HW,2013-03-04 20:20:00,
2013-03-04 15:25:00,49.1,21.7,30.14,NW,315,0.0,0.0,34,0.00,,,0.00,WUHU216HW,2013-03-04 20:25:00,
2013-03-04 15:30:00,49.1,21.7,30.14,WNW,293,0.0,0.0,34,0.00,,,0.00,WUHU216HW,2013-03-04 20:30:00,
2013-03-04 15:35:00,49.1,21.7,30.13,North,0,0.0,0.0,34,0.00,,,0.00,WUHU216HW,2013-03-04 20:35:00,
2013-03-04 15:40:00,49.1,21.7,30.14,NNW,338,0.0,0.0,34,0.00,,,0.00,WUHU216HW,2013-03-04 20:40:00,
2013-03-04 15:45:00,49.1,21.7,30.13,NNW,338,0.0,0.0,34,0.00,,,0.00,WUHU216HW,2013-03-04 20:45:00,
2013-03-04 15:50:00,49.1,22.4,30.13,North,0,0.0,0.0,35,0.00,,,0.00,WUHU216HW,2013-03-04 20:50:00,
2013-03-04 15:55:00,49.1,21.0,30.13,NW,315,0.0,0.0,33,0.00,,,0.00,WUHU216HW,2013-03-04 20:55:00,
2013-03-04 16:00:00,49.1,20.3,30.13,NNW,338,0.0,0.0,32,0.00,,,0.00,WUHU216HW,2013-03-04 21:00:00,
2013-03-04 16:05:00,49.1,21.0,30.14,NNW,338,0.0,0.0,33,0.00,,,0.00,WUHU216HW,2013-03-04 21:05:00,
2013-03-04 16:10:00,49.2,21.8,30.13,NNW,338,0.0,0.0,34,0.00,,,0.00,WUHU216HW,2013-03-04 21:10:00,
2013-03-04 16:15:00,49.2,21.8,30.14,NW,315,0.0,0.0,34,0.00,,,0.00,WUHU216HW,2013-03-04 21:15:00,
2013-03-04 16:20:00,49.6,22.1,30.13,WSW,248,0.0,0.0,34,0.00,,,0.00,WUHU216HW,2013-03-04 21:20:00,
2013-03-04 16:25:00,49.6,22.8,30.14,WSW,248,0.0,0.0,35,0.00,,,0.00,WUHU216HW,2013-03-04 21:25:00,
2013-03-04 16:30:00,49.8,23.0,30.14,WSW,248,0.0,0.0,35,0.00,,,0.00,WUHU216HW,2013-03-04 21:30:00,
2013-03-04 16:35:00,49.8,23.0,30.13,WSW,248,0.0,0.0,35,0.00,,,0.00,WUHU216HW,2013-03-04 21:35:00,
2013-03-04 16:40:00,49.8,23.0,30.13,WSW,248,0.0,0.0,35,0.00,,,0.00,WUHU216HW,2013-03-04 21:40:00,
2013-03-04 16:45:00,49.8,22.3,30.13,WNW,293,0.0,0.0,34,0.00,,,0.00,WUHU216HW,2013-03-04 21:45:00,
2013-03-04 16:50:00,49.6,22.8,30.14,WNW,293,0.0,0.0,35,0.00,,,0.00,WUHU216HW,2013-03-04 21:50:00,
2013-03-04 16:55:00,49.2,21.8,30.14,WNW,293,0.0,0.0,34,0.00,,,0.00,WUHU216HW,2013-03-04 21:55:00,
2013-03-04 17:00:00,49.1,21.0,30.14,NNW,338,0.0,0.0,33,0.00,,,0.00,WUHU216HW,2013-03-04 22:00:00,
2013-03-04 17:05:00,49.1,21.0,30.14,NNW,338,0.0,0.0,33,0.00,,,0.00,WUHU216HW,2013-03-04 22:05:00,
2013-03-04 17:10:00,48.9,21.5,30.14,NNW,338,0.0,0.0,34,0.00,,,0.00,WUHU216HW,2013-03-04 22:10:00,
2013-03-04 17:15:00,48.9,21.5,30.14,West,270,0.0,0.0,34,0.00,,,0.00,WUHU216HW,2013-03-04 22:15:00,
2013-03-04 17:20:00,49.1,22.4,30.14,WNW,293,0.0,0.0,35,0.00,,,0.00,WUHU216HW,2013-03-04 22:20:00,
2013-03-04 17:25:00,48.9,22.2,30.14,WNW,293,0.0,0.0,35,0.00,,,0.00,WUHU216HW,2013-03-04 22:25:00,
2013-03-04 17:30:00,48.7,22.1,30.14,WNW,293,0.0,0.0,35,0.00,,,0.00,WUHU216HW,2013-03-04 22:30:00,
2013-03-04 17:35:00,48.7,22.1,30.14,WNW,293,0.0,0.0,35,0.00,,,0.00,WUHU216HW,2013-03-04 22:35:00,
2013-03-04 17:40:00,48.7,22.7,30.14,WNW,293,0.0,0.0,36,0.00,,,0.00,WUHU216HW,2013-03-04 22:40:00,
2013-03-04 17:45:00,48.7,22.7,30.14,WNW,293,0.0,0.0,36,0.00,,,0.00,WUHU216HW,2013-03-04 22:45:00,
2013-03-04 17:50:00,48.3,23.2,30.14,WNW,293,0.0,0.0,37,0.00,,,0.00,WUHU216HW,2013-03-04 22:50:00,
2013-03-04 17:55:00,48.2,22.9,30.14,WNW,293,0.0,0.0,37,0.00,,,0.00,WUHU216HW,2013-03-04 22:55:00,
2013-03-04 18:00:00,48.0,22.8,30.14,West,270,0.0,0.0,37,0.00,,,0.00,WUHU216HW,2013-03-04 23:00:00,
2013-03-04 18:05:00,47.8,21.9,30.15,NNW,338,0.0,0.0,36,0.00,,,0.00,WUHU216HW,2013-03-04 23:05:00,
2013-03-04 18:10:00,47.3,22.1,30.14,NNW,338,0.0,0.0,37,0.00,,,0.00,WUHU216HW,2013-03-04 23:10:00,
2013-03-04 18:15:00,47.1,22.0,30.15,NNW,338,0.0,0.0,37,0.00,,,0.00,WUHU216HW,2013-03-04 23:15:00,
2013-03-04 18:20:00,46.7,21.6,30.15,NNW,338,0.0,0.0,37,0.00,,,0.00,WUHU216HW,2013-03-04 23:20:00,
2013-03-04 18:25:00,46.5,21.5,30.15,NNW,338,0.0,0.0,37,0.00,,,0.00,WUHU216HW,2013-03-04 23:25:00,
2013-03-04 18:30:00,46.2,21.8,30.15,NNW,338,0.0,0.0,38,0.00,,,0.00,WUHU216HW,2013-03-04 23:30:00,
2013-03-04 18:35:00,46.0,21.7,30.15,NNW,338,0.0,0.0,38,0.00,,,0.00,WUHU216HW,2013-03-04 23:35:00,
2013-03-04 18:40:00,45.6,21.3,30.16,NNW,338,0.0,0.0,38,0.00,,,0.00,WUHU216HW,2013-03-04 23:40:00,
2013-03-04 18:45:00,45.5,22.0,30.15,NNW,338,0.0,0.0,39,0.00,,,0.00,WUHU216HW,2013-03-04 23:45:00,
2013-03-04 18:50:00,45.3,21.7,30.16,NNW,338,0.0,0.0,39,0.00,,,0.00,WUHU216HW,2013-03-04 23:50:00,
2013-03-04 18:55:00,45.1,22.2,30.16,NNW,338,0.0,0.0,40,0.00,,,0.00,WUHU216HW,2013-03-04 23:55:00,
2013-03-04 19:00:00,44.9,22.0,30.16,NNW,338,0.0,0.0,40,0.00,,,0.00,WUHU216HW,2013-03-05 00:00:00,
2013-03-04 19:05:00,44.7,21.9,30.16,NNW,338,0.0,0.0,40,0.00,,,0.00,WUHU216HW,2013-03-05 00:05:00,
2013-03-04 19:10:00,44.4,21.5,30.15,NNW,338,0.0,0.0,40,0.00,,,0.00,WUHU216HW,2013-03-05 00:10:00,
2013-03-04 19:15:00,44.2,21.4,30.15,NNW,338,0.0,0.0,40,0.00,,,0.00,WUHU216HW,2013-03-05 00:15:00,
2013-03-04 19:20:00,43.8,21.6,30.15,NNW,338,0.0,0.0,41,0.00,,,0.00,WUHU216HW,2013-03-05 00:20:00,
2013-03-04 19:25:00,43.5,21.3,30.15,NNW,338,0.0,0.0,41,0.00,,,0.00,WUHU216HW,2013-03-05 00:25:00,
2013-03-04 19:30:00,43.1,20.9,30.15,NNW,338,0.0,0.0,41,0.00,,,0.00,WUHU216HW,2013-03-05 00:30:00,
2013-03-04 19:35:00,42.9,20.8,30.15,NNW,338,0.0,0.0,41,0.00,,,0.00,WUHU216HW,2013-03-05 00:35:00,
2013-03-04 19:40:00,42.6,20.4,30.15,NNW,338,0.0,0.0,41,0.00,,,0.00,WUHU216HW,2013-03-05 00:40:00,
2013-03-04 19:46:00,42.0,20.5,30.15,NNW,338,0.0,0.0,42,0.00,,,0.00,WUHU216HW,2013-03-05 00:46:00,
2013-03-04 19:51:00,41.7,20.1,30.15,NNW,338,0.0,0.0,42,0.00,,,0.00,WUHU216HW,2013-03-05 00:51:00,
2013-03-04 19:56:00,41.3,19.8,30.15,NNW,338,0.0,0.0,42,0.00,,,0.00,WUHU216HW,2013-03-05 00:56:00,
2013-03-04 20:01:00,40.8,19.9,30.15,NNW,338,0.0,0.0,43,0.00,,,0.00,WUHU216HW,2013-03-05 01:01:00,
2013-03-04 20:06:00,40.6,20.2,30.14,NNW,338,0.0,0.0,44,0.00,,,0.00,WUHU216HW,2013-03-05 01:06:00,
2013-03-04 20:11:00,40.4,20.2,30.14,NNW,338,0.0,0.0,44,0.00,,,0.00,WUHU216HW,2013-03-05 01:11:00,
2013-03-04 20:16:00,40.2,19.9,30.15,NNW,338,0.0,0.0,44,0.00,,,0.00,WUHU216HW,2013-03-05 01:16:00,
2013-03-04 20:21:00,40.1,20.3,30.15,NNW,338,0.0,0.0,45,0.00,,,0.00,WUHU216HW,2013-03-05 01:21:00,
2013-03-04 20:26:00,39.9,20.1,30.15,NNW,338,0.0,0.0,45,0.00,,,0.00,WUHU216HW,2013-03-05 01:26:00,
2013-03-04 20:31:00,39.7,20.4,30.16,NNW,338,0.0,0.0,46,0.00,,,0.00,WUHU216HW,2013-03-05 01:31:00,
2013-03-04 20:36:00,39.5,20.3,30.15,NNW,338,0.0,0.0,46,0.00,,,0.00,WUHU216HW,2013-03-05 01:36:00,
2013-03-04 20:41:00,39.3,20.1,30.15,NNW,338,0.0,0.0,46,0.00,,,0.00,WUHU216HW,2013-03-05 01:41:00,
2013-03-04 20:46:00,39.0,20.3,30.15,NNW,338,0.0,0.0,47,0.00,,,0.00,WUHU216HW,2013-03-05 01:46:00,
2013-03-04 20:51:00,38.8,20.2,30.16,NNW,338,0.0,0.0,47,0.00,,,0.00,WUHU216HW,2013-03-05 01:51:00,
2013-03-04 20:56:00,38.4,20.4,30.15,NNW,338,0.0,0.0,48,0.00,,,0.00,WUHU216HW,2013-03-05 01:56:00,
2013-03-04 21:01:00,38.3,20.2,30.15,NNW,338,0.0,0.0,48,0.00,,,0.00,WUHU216HW,2013-03-05 02:01:00,
2013-03-04 21:06:00,38.1,20.0,30.15,NNW,338,0.0,0.0,48,0.00,,,0.00,WUHU216HW,2013-03-05 02:06:00,
2013-03-04 21:11:00,37.9,19.9,30.15,NNW,338,0.0,0.0,48,0.00,,,0.00,WUHU216HW,2013-03-05 02:11:00,
2013-03-04 21:16:00,37.7,20.2,30.15,NNW,338,0.0,0.0,49,0.00,,,0.00,WUHU216HW,2013-03-05 02:16:00,
2013-03-04 21:21:00,37.5,20.1,30.15,NNW,338,0.0,0.0,49,0.00,,,0.00,WUHU216HW,2013-03-05 02:21:00,
2013-03-04 21:26:00,37.4,20.4,30.16,NNW,338,0.0,0.0,50,0.00,,,0.00,WUHU216HW,2013-03-05 02:26:00,
2013-03-04 21:31:00,37.2,20.7,30.15,NNW,338,0.0,0.0,51,0.00,,,0.00,WUHU216HW,2013-03-05 02:31:00,
2013-03-04 21:36:00,37.2,20.7,30.15,NNW,338,0.0,0.0,51,0.00,,,0.00,WUHU216HW,2013-03-05 02:36:00,
2013-03-04 21:41:00,37.2,20.7,30.15,NNW,338,0.0,0.0,51,0.00,,,0.00,WUHU216HW,2013-03-05 02:41:00,
2013-03-04 21:46:00,37.0,20.5,30.15,NNW,338,0.0,0.0,51,0.00,,,0.00,WUHU216HW,2013-03-05 02:46:00,
2013-03-04 21:51:00,36.8,20.4,30.16,NNW,338,0.0,0.0,51,0.00,,,0.00,WUHU216HW,2013-03-05 02:51:00,
2013-03-04 21:56:00,36.6,20.2,30.16,NNW,338,0.0,0.0,51,0.00,,,0.00,WUHU216HW,2013-03-05 02:56:00,
2013-03-04 22:01:00,36.5,20.5,30.15,NNW,338,0.0,0.0,52,0.00,,,0.00,WUHU216HW,2013-03-05 03:01:00,
2013-03-04 22:06:00,36.5,20.5,30.15,NNW,338,0.0,0.0,52,0.00,,,0.00,WUHU216HW,2013-03-05 03:06:00,
2013-03-04 22:11:00,36.3,20.8,30.16,NNW,338,0.0,0.0,53,0.00,,,0.00,WUHU216HW,2013-03-05 03:11:00,
2013-03-04 22:16:00,36.1,20.6,30.16,NNW,338,0.0,0.0,53,0.00,,,0.00,WUHU216HW,2013-03-05 03:16:00,
2013-03-04 22:21:00,35.7,20.7,30.16,NNW,338,0.0,0.0,54,0.00,,,0.00,WUHU216HW,2013-03-05 03:21:00,
2013-03-04 22:26:00,35.7,20.3,30.16,NNW,338,0.0,0.0,53,0.00,,,0.00,WUHU216HW,2013-03-05 03:26:00,
2013-03-04 22:31:00,35.4,20.4,30.16,NNW,338,0.0,0.0,54,0.00,,,0.00,WUHU216HW,2013-03-05 03:31:00,
2013-03-04 22:36:00,35.4,20.4,30.16,NNW,338,0.0,0.0,54,0.00,,,0.00,WUHU216HW,2013-03-05 03:36:00,
2013-03-04 22:41:00,35.2,20.2,30.16,NNW,338,0.0,0.0,54,0.00,,,0.00,WUHU216HW,2013-03-05 03:41:00,
2013-03-04 22:46:00,35.0,20.0,30.15,NNW,338,0.0,0.0,54,0.00,,,0.00,WUHU216HW,2013-03-05 03:46:00,
2013-03-04 22:51:00,34.8,20.3,30.16,NNW,338,0.0,0.0,55,0.00,,,0.00,WUHU216HW,2013-03-05 03:51:00,
2013-03-04 22:56:00,34.8,20.1,30.15,NNW,338,0.0,0.0,55,0.00,,,0.00,WUHU216HW,2013-03-05 03:56:00,
2013-03-04 23:01:00,34.7,20.1,30.16,NNW,338,0.0,0.0,55,0.00,,,0.00,WUHU216HW,2013-03-05 04:01:00,
2013-03-04 23:06:00,34.5,20.3,30.16,NNW,338,0.0,0.0,56,0.00,,,0.00,WUHU216HW,2013-03-05 04:06:00,
2013-03-04 23:11:00,34.3,20.1,30.16,NNW,338,0.0,0.0,56,0.00,,,0.00,WUHU216HW,2013-03-05 04:11:00,
2013-03-04 23:16:00,34.3,20.1,30.15,NNW,338,0.0,0.0,56,0.00,,,0.00,WUHU216HW,2013-03-05 04:16:00,
2013-03-04 23:21:00,34.3,20.1,30.15,NNW,338,0.0,0.0,56,0.00,,,0.00,WUHU216HW,2013-03-05 04:21:00,
2013-03-04 23:26:00,34.3,20.1,30.15,NNW,338,0.0,0.0,56,0.00,,,0.00,WUHU216HW,2013-03-05 04:26:00,
2013-03-04 23:31:00,34.3,20.1,30.16,NNW,338,0.0,0.0,56,0.00,,,0.00,WUHU216HW,2013-03-05 04:31:00,
2013-03-04 23:36:00,34.3,20.1,30.15,NNW,338,0.0,0.0,56,0.00,,,0.00,WUHU216HW,2013-03-05 04:36:00,
2013-03-04 23:41:00,34.1,20.4,30.15,NNW,338,0.0,0.0,57,0.00,,,0.00,WUHU216HW,2013-03-05 04:41:00,
2013-03-04 23:46:00,34.1,20.4,30.16,NNW,338,0.0,0.0,57,0.00,,,0.00,WUHU216HW,2013-03-05 04:46:00,
2013-03-04 23:51:00,34.1,20.8,30.16,NNW,338,0.0,0.0,58,0.00,,,0.00,WUHU216HW,2013-03-05 04:51:00,
2013-03-04 23:56:00,34.1,20.8,30.16,NNW,338,0.0,0.0,58,0.00,,,0.00,WUHU216HW,2013-03-05 04:56:00,